Location: Dortmund
(51.5019°N, 7.6520°E)
Time: 11:07:05
(UTC+02:00)

ISS - Visible Passes

Search period start: 13 May 2021 00:00
Search period end: 23 May 2021 00:00
Orbit: 417 x 422 km, 51.6° (Epoch: 13 May)

Date Brightness Start Highest point End Pass type
(mag) Time Alt. Az. Time Alt. Az. Time Alt. Az.
13 May -3.9 02:05:01 65° W 02:05:28 88° N 02:08:51 10° E visible
13 May -3.9 03:38:55 10° W 03:42:18 74° SSW 03:45:40 10° ESE visible
14 May -3.5 01:18:39 56° E 01:18:39 56° E 01:21:24 10° E visible
14 May -3.9 02:51:31 10° W 02:54:52 85° S 02:58:15 10° ESE visible
14 May -3.1 04:28:23 10° W 04:31:28 33° SSW 04:34:34 10° SE visible
14 May -2.6 22:51:26 10° SSW 22:54:08 23° SE 22:55:35 17° ESE visible
15 May -3.9 00:27:14 10° WSW 00:30:36 71° SSE 00:33:58 10° E visible
15 May -3.8 02:04:02 10° W 02:07:25 87° N 02:10:49 10° E visible
15 May -3.5 03:40:52 10° W 03:44:08 45° SSW 03:47:23 10° SE visible
15 May -2.1 22:04:43 10° S 22:06:53 16° SE 22:09:03 10° E visible
15 May -3.8 23:39:53 10° WSW 23:43:11 56° SSE 23:46:31 10° E visible
16 May -3.8 01:16:34 10° W 01:19:58 85° N 01:23:21 10° E visible
16 May -3.8 02:53:24 10° W 02:56:45 59° SSW 03:00:05 10° ESE visible
16 May -2.2 04:30:47 10° W 04:33:05 17° SW 04:35:23 10° S visible
16 May -3.4 22:52:36 10° SW 22:55:49 43° SSE 22:59:02 10° E visible
17 May -3.8 00:29:07 10° W 00:32:30 88° N 00:35:54 10° E visible
17 May -3.9 02:05:57 10° W 02:09:20 73° SSW 02:12:42 10° ESE visible
17 May -2.7 03:43:01 10° W 03:45:49 24° SSW 03:48:37 10° SSE visible
17 May -3.0 22:05:27 10° SW 22:08:28 31° SSE 22:11:31 10° E visible
17 May -3.9 23:41:41 10° WSW 23:45:03 84° S 23:48:27 10° E visible
18 May -3.9 01:18:31 10° W 01:21:54 85° S 01:22:56 42° ESE visible
18 May -1.4 02:55:26 10° W 02:55:49 12° W 02:55:49 12° W visible
18 May -3.9 22:54:16 10° WSW 22:57:38 71° SSE 23:01:00 10° E visible
19 May -3.8 00:31:03 10° W 00:34:27 87° N 00:36:31 22° E visible
19 May -2.2 02:07:54 10° W 02:09:26 23° W 02:09:26 23° W visible
19 May -3.7 22:06:55 10° WSW 22:10:13 57° SSE 22:13:32 10° E visible
19 May -3.8 23:43:36 10° W 23:46:59 85° N 23:50:21 10° E visible
20 May -3.5 01:20:26 10° W 01:23:16 51° WSW 01:23:16 51° WSW visible
20 May -3.8 22:56:09 10° W 22:59:32 88° N 23:02:55 10° E visible
21 May -3.9 00:32:59 10° W 00:36:21 73° SSW 00:37:12 46° SE visible
21 May -1.1 02:10:03 10° W 02:10:08 10° W 02:10:08 10° W visible
21 May -3.8 22:08:41 10° WSW 22:12:04 84° S 22:15:27 10° E visible
21 May -3.9 23:45:31 10° W 23:48:55 85° S 23:51:10 19° ESE visible
22 May -2.1 01:22:26 10° W 01:24:06 23° WSW 01:24:06 23° WSW visible
22 May -3.8 22:58:04 10° W 23:01:27 88° N 23:04:51 10° E visible
